Time,TemperatureF,DewpointF,PressureIn,WindDirection,WindDirectionDegrees,WindSpeedMPH,WindSpeedGustMPH,Humidity,HourlyPrecipIn,Conditions,Clouds,dailyrainin,SoftwareType,DateUTC
2013-05-11 00:01:00,49.9,28.3,30.19,East,82,0.0,5.0,43,0.00,,SKC,0.01,VWS V14.01,2013-05-11 06:01:00,
2013-05-11 00:06:00,49.8,28.8,30.19,East,82,0.0,1.0,44,0.00,,SKC,0.00,VWS V14.01,2013-05-11 06:06:00,
2013-05-11 00:11:00,49.6,28.6,30.19,East,82,0.0,1.0,44,0.00,,SKC,0.00,VWS V14.01,2013-05-11 06:11:00,
2013-05-11 00:16:00,49.4,28.4,30.18,East,82,0.0,1.0,44,0.00,,SKC,0.00,VWS V14.01,2013-05-11 06:16:00,
2013-05-11 00:21:00,49.2,28.8,30.18,East,82,0.0,1.0,45,0.00,,SKC,0.00,VWS V14.01,2013-05-11 06:21:00,
2013-05-11 00:26:00,49.1,28.7,30.18,East,82,0.0,1.0,45,0.00,,SKC,0.00,VWS V14.01,2013-05-11 06:26:00,
2013-05-11 00:31:00,48.8,29.0,30.18,East,82,0.0,1.0,46,0.00,,SKC,0.00,VWS V14.01,2013-05-11 06:31:00,
2013-05-11 00:36:00,48.5,28.7,30.18,East,82,0.0,0.0,46,0.00,,SKC,0.00,VWS V14.01,2013-05-11 06:36:00,
2013-05-11 00:41:00,48.2,28.9,30.18,East,82,0.0,0.0,47,0.00,,SKC,0.00,VWS V14.01,2013-05-11 06:41:00,
2013-05-11 00:46:00,48.0,28.8,30.18,East,82,0.0,0.0,47,0.00,,SKC,0.00,VWS V14.01,2013-05-11 06:46:00,
2013-05-11 00:51:00,47.7,29.0,30.18,East,82,0.0,0.0,48,0.00,,SKC,0.00,VWS V14.01,2013-05-11 06:51:00,
2013-05-11 00:56:00,47.3,29.1,30.18,East,82,0.0,0.0,49,0.00,,SKC,0.00,VWS V14.01,2013-05-11 06:56:00,
2013-05-11 01:01:00,47.0,28.9,30.19,East,82,0.0,0.0,49,0.00,,SKC,0.00,VWS V14.01,2013-05-11 07:01:00,
2013-05-11 01:06:00,46.7,29.1,30.19,East,82,0.0,0.0,50,0.00,,SKC,0.00,VWS V14.01,2013-05-11 07:06:00,
2013-05-11 01:11:00,46.5,29.4,30.19,East,82,0.0,0.0,51,0.00,,SKC,0.00,VWS V14.01,2013-05-11 07:11:00,
2013-05-11 01:16:00,46.2,29.6,30.17,East,82,0.0,0.0,52,0.00,,SKC,0.00,VWS V14.01,2013-05-11 07:16:00,
2013-05-11 01:21:00,45.8,29.2,30.17,East,82,0.0,0.0,52,0.00,,SKC,0.00,VWS V14.01,2013-05-11 07:21:00,
2013-05-11 01:26:00,45.4,29.3,30.17,East,82,0.0,0.0,53,0.00,,SKC,0.00,VWS V14.01,2013-05-11 07:26:00,
2013-05-11 01:31:00,45.1,29.5,30.18,East,82,0.0,0.0,54,0.00,,SKC,0.00,VWS V14.01,2013-05-11 07:31:00,
2013-05-11 01:36:00,44.6,29.5,30.18,East,82,0.0,0.0,55,0.00,,SKC,0.00,VWS V14.01,2013-05-11 07:36:00,
2013-05-11 01:41:00,44.2,29.5,30.18,East,82,0.0,0.0,56,0.00,,SKC,0.00,VWS V14.01,2013-05-11 07:41:00,
2013-05-11 01:46:00,43.9,29.2,30.18,East,82,0.0,0.0,56,0.00,,SKC,0.00,VWS V14.01,2013-05-11 07:46:00,
2013-05-11 01:51:00,43.6,29.4,30.18,East,82,0.0,0.0,57,0.00,,SKC,0.00,VWS V14.01,2013-05-11 07:51:00,
2013-05-11 01:56:00,43.3,29.5,30.18,East,82,0.0,0.0,58,0.00,,SKC,0.00,VWS V14.01,2013-05-11 07:56:00,
2013-05-11 02:01:00,43.1,29.8,30.18,East,82,0.0,0.0,59,0.00,,SKC,0.00,VWS V14.01,2013-05-11 08:01:00,
2013-05-11 02:06:00,42.8,29.9,30.18,East,82,0.0,0.0,60,0.00,,SKC,0.00,VWS V14.01,2013-05-11 08:06:00,
2013-05-11 02:11:00,42.8,29.9,30.18,East,82,0.0,0.0,60,0.00,,SKC,0.00,VWS V14.01,2013-05-11 08:11:00,
2013-05-11 02:16:00,42.6,29.7,30.16,East,82,0.0,0.0,60,0.00,,SKC,0.00,VWS V14.01,2013-05-11 08:16:00,
2013-05-11 02:21:00,42.5,30.0,30.16,East,82,0.0,0.0,61,0.00,,SKC,0.00,VWS V14.01,2013-05-11 08:21:00,
2013-05-11 02:26:00,42.5,30.0,30.16,East,82,0.0,0.0,61,0.00,,SKC,0.00,VWS V14.01,2013-05-11 08:26:00,
2013-05-11 02:31:00,42.5,30.0,30.17,East,82,0.0,0.0,61,0.00,,SKC,0.00,VWS V14.01,2013-05-11 08:31:00,
2013-05-11 02:36:00,42.3,30.6,30.17,East,82,0.0,0.0,63,0.00,,SKC,0.00,VWS V14.01,2013-05-11 08:36:00,
2013-05-11 02:41:00,42.3,29.8,30.17,East,82,0.0,0.0,61,0.00,,SKC,0.00,VWS V14.01,2013-05-11 08:41:00,
2013-05-11 02:46:00,42.6,29.7,30.16,East,82,0.0,0.0,60,0.00,,SKC,0.00,VWS V14.01,2013-05-11 08:46:00,
2013-05-11 02:51:00,43.1,31.4,30.16,East,82,0.0,0.0,63,0.00,,SKC,0.00,VWS V14.01,2013-05-11 08:51:00,
2013-05-11 02:56:00,43.3,30.4,30.16,East,82,0.0,0.0,60,0.00,,SKC,0.00,VWS V14.01,2013-05-11 08:56:00,
2013-05-11 03:01:00,43.6,30.2,30.16,East,82,0.0,0.0,59,0.00,,SKC,0.00,VWS V14.01,2013-05-11 09:01:00,
2013-05-11 03:06:00,43.8,30.8,30.16,East,82,0.0,0.0,60,0.00,,SKC,0.00,VWS V14.01,2013-05-11 09:06:00,
2013-05-11 03:11:00,43.9,30.5,30.16,East,82,0.0,0.0,59,0.00,,SKC,0.00,VWS V14.01,2013-05-11 09:11:00,
2013-05-11 03:16:00,43.9,30.5,30.15,East,82,0.0,0.0,59,0.00,,SKC,0.00,VWS V14.01,2013-05-11 09:16:00,
2013-05-11 03:21:00,43.9,30.9,30.15,East,82,0.0,0.0,60,0.00,,SKC,0.00,VWS V14.01,2013-05-11 09:21:00,
2013-05-11 03:26:00,43.8,30.4,30.15,East,82,0.0,0.0,59,0.00,,SKC,0.00,VWS V14.01,2013-05-11 09:26:00,
2013-05-11 03:31:00,43.8,30.8,30.15,East,82,0.0,0.0,60,0.00,,SKC,0.00,VWS V14.01,2013-05-11 09:31:00,
2013-05-11 03:36:00,43.5,30.5,30.15,East,82,0.0,0.0,60,0.00,,SKC,0.00,VWS V14.01,2013-05-11 09:36:00,
2013-05-11 03:41:00,43.2,30.3,30.15,West,270,0.0,0.0,60,0.00,,SKC,0.00,VWS V14.01,2013-05-11 09:41:00,
2013-05-11 03:46:00,43.1,30.2,30.14,West,270,0.0,0.0,60,0.00,,SKC,0.00,VWS V14.01,2013-05-11 09:46:00,
2013-05-11 03:51:00,43.1,30.2,30.14,West,271,0.0,0.0,60,0.00,,SKC,0.00,VWS V14.01,2013-05-11 09:51:00,
2013-05-11 03:56:00,43.1,31.0,30.14,West,270,0.0,0.0,62,0.00,,SKC,0.00,VWS V14.01,2013-05-11 09:56:00,
2013-05-11 04:01:00,42.9,31.2,30.14,West,270,0.0,0.0,63,0.00,,SKC,0.00,VWS V14.01,2013-05-11 10:01:00,
2013-05-11 04:06:00,42.6,30.9,30.14,West,271,0.0,0.0,63,0.00,,FEW120,0.00,VWS V14.01,2013-05-11 10:06:00,
2013-05-11 04:11:00,42.5,31.2,30.14,West,270,0.0,0.0,64,0.00,,FEW120,0.00,VWS V14.01,2013-05-11 10:11:00,
2013-05-11 04:16:00,42.3,31.0,30.15,West,271,0.0,0.0,64,0.00,,FEW120,0.00,VWS V14.01,2013-05-11 10:16:00,
2013-05-11 04:21:00,42.1,31.2,30.15,West,270,0.0,0.0,65,0.00,,FEW120,0.00,VWS V14.01,2013-05-11 10:21:00,
2013-05-11 04:26:00,41.6,31.1,30.15,West,271,0.0,0.0,66,0.00,,FEW120,0.00,VWS V14.01,2013-05-11 10:26:00,
2013-05-11 04:31:00,41.3,30.8,30.15,West,270,0.0,0.0,66,0.00,,FEW120,0.00,VWS V14.01,2013-05-11 10:31:00,
2013-05-11 04:36:00,41.1,31.0,30.15,West,271,0.0,0.0,67,0.00,,SKC,0.00,VWS V14.01,2013-05-11 10:36:00,
2013-05-11 04:41:00,40.9,30.8,30.15,West,270,0.0,1.0,67,0.00,,SKC,0.00,VWS V14.01,2013-05-11 10:41:00,
2013-05-11 04:46:00,40.9,30.8,30.15,West,270,0.0,1.0,67,0.00,,SKC,0.00,VWS V14.01,2013-05-11 10:46:00,
2013-05-11 04:51:00,40.9,30.8,30.15,West,270,0.0,1.0,67,0.00,,SKC,0.00,VWS V14.01,2013-05-11 10:51:00,
2013-05-11 04:56:00,40.9,30.8,30.15,West,270,0.0,1.0,67,0.00,,SKC,0.00,VWS V14.01,2013-05-11 10:56:00,
2013-05-11 05:01:00,40.8,31.1,30.14,West,270,0.0,1.0,68,0.00,,SKC,0.00,VWS V14.01,2013-05-11 11:01:00,
2013-05-11 05:06:00,40.5,30.8,30.14,West,271,0.0,0.0,68,0.00,,SKC,0.00,VWS V14.01,2013-05-11 11:06:00,
2013-05-11 05:11:00,40.5,31.1,30.14,West,270,0.0,0.0,69,0.00,,SKC,0.00,VWS V14.01,2013-05-11 11:11:00,
2013-05-11 05:16:00,40.3,31.0,30.15,West,270,0.0,0.0,69,0.00,,SKC,0.00,VWS V14.01,2013-05-11 11:16:00,
2013-05-11 05:21:00,40.5,30.8,30.15,West,271,0.0,1.0,68,0.00,,SKC,0.00,VWS V14.01,2013-05-11 11:21:00,
2013-05-11 05:26:00,41.3,30.8,30.15,West,271,0.0,1.0,66,0.00,,SKC,0.00,VWS V14.01,2013-05-11 11:26:00,
2013-05-11 05:31:00,41.8,30.9,30.13,West,271,0.0,1.0,65,0.00,,SKC,0.00,VWS V14.01,2013-05-11 11:31:00,
2013-05-11 05:36:00,41.9,31.0,30.13,West,270,0.0,0.0,65,0.00,,FEW120,0.00,VWS V14.01,2013-05-11 11:36:00,
2013-05-11 05:41:00,41.8,31.3,30.13,West,270,0.0,0.0,66,0.00,,FEW120,0.00,VWS V14.01,2013-05-11 11:41:00,
2013-05-11 05:46:00,41.3,31.2,30.14,West,270,0.0,0.0,67,0.00,,FEW120,0.00,VWS V14.01,2013-05-11 11:46:00,
2013-05-11 05:51:00,40.8,31.1,30.14,West,270,0.0,0.0,68,0.00,,FEW120,0.00,VWS V14.01,2013-05-11 11:51:00,
2013-05-11 05:56:00,40.3,31.0,30.14,West,271,0.0,0.0,69,0.00,,FEW120,0.00,VWS V14.01,2013-05-11 11:56:00,
2013-05-11 06:01:00,40.1,30.8,30.13,West,271,0.0,0.0,69,0.00,,FEW120,0.00,VWS V14.01,2013-05-11 12:01:00,
2013-05-11 06:06:00,39.9,30.9,30.13,West,270,0.0,0.0,70,0.00,,FEW120,0.00,VWS V14.01,2013-05-11 12:06:00,
2013-05-11 06:11:00,39.9,31.3,30.13,West,271,0.0,0.0,71,0.00,,FEW120,0.00,VWS V14.01,2013-05-11 12:11:00,
2013-05-11 06:16:00,39.8,31.2,30.14,West,270,0.0,0.0,71,0.00,,FEW120,0.00,VWS V14.01,2013-05-11 12:16:00,
2013-05-11 06:20:00,39.8,31.2,30.14,West,270,0.0,0.0,71,0.00,,FEW120,0.00,VWS V14.01,2013-05-11 12:20:00,
2013-05-11 06:25:00,39.9,30.9,30.14,West,270,0.0,0.0,70,0.00,,FEW120,0.00,VWS V14.01,2013-05-11 12:25:00,
2013-05-11 06:30:00,40.2,30.9,30.14,West,270,0.0,0.0,69,0.00,,FEW120,0.00,VWS V14.01,2013-05-11 12:30:00,
2013-05-11 06:35:00,40.5,31.1,30.14,West,270,0.0,0.0,69,0.00,,SCT140,0.00,VWS V14.01,2013-05-11 12:35:00,
2013-05-11 06:41:00,40.6,30.9,30.14,West,270,0.0,0.0,68,0.00,,SCT140,0.00,VWS V14.01,2013-05-11 12:41:00,
2013-05-11 06:46:00,40.8,31.1,30.13,West,271,0.0,0.0,68,0.00,,SCT140,0.00,VWS V14.01,2013-05-11 12:46:00,
2013-05-11 06:51:00,41.1,31.0,30.13,West,271,0.0,0.0,67,0.00,,SCT140,0.00,VWS V14.01,2013-05-11 12:51:00,
2013-05-11 06:55:00,41.2,31.1,30.13,West,271,0.0,0.0,67,0.00,,SCT140,0.00,VWS V14.01,2013-05-11 12:55:00,
2013-05-11 07:00:00,41.3,31.2,30.13,West,271,0.0,0.0,67,0.00,,SCT140,0.00,VWS V14.01,2013-05-11 13:00:00,
2013-05-11 07:05:00,41.3,31.2,30.13,West,271,0.0,0.0,67,0.00,,SCT140,0.00,VWS V14.01,2013-05-11 13:05:00,
2013-05-11 07:10:00,41.5,31.0,30.13,West,271,0.0,0.0,66,0.00,,SCT140,0.00,VWS V14.01,2013-05-11 13:10:00,
2013-05-11 07:15:00,41.9,31.4,30.12,West,271,0.0,0.0,66,0.00,,SCT140,0.00,VWS V14.01,2013-05-11 13:15:00,
2013-05-11 07:20:00,42.5,31.2,30.12,West,271,0.0,0.0,64,0.00,,SCT140,0.00,VWS V14.01,2013-05-11 13:20:00,
2013-05-11 07:25:00,42.6,31.3,30.12,West,271,0.0,0.0,64,0.00,,SCT140,0.00,VWS V14.01,2013-05-11 13:25:00,
2013-05-11 07:30:00,42.6,31.3,30.12,West,271,0.0,0.0,64,0.00,,SCT140,0.00,VWS V14.01,2013-05-11 13:30:00,
2013-05-11 07:35:00,42.6,31.3,30.12,West,271,0.0,0.0,64,0.00,,BKN260,0.00,VWS V14.01,2013-05-11 13:35:00,
2013-05-11 07:40:00,42.3,31.4,30.12,West,271,0.0,0.0,65,0.00,,BKN260,0.00,VWS V14.01,2013-05-11 13:40:00,
2013-05-11 07:45:00,41.9,31.4,30.12,West,271,0.0,0.0,66,0.00,,BKN260,0.00,VWS V14.01,2013-05-11 13:45:00,
2013-05-11 07:50:00,41.5,31.4,30.12,West,271,0.0,0.0,67,0.00,,BKN260,0.00,VWS V14.01,2013-05-11 13:50:00,
2013-05-11 07:55:00,41.2,31.5,30.12,West,271,0.0,0.0,68,0.00,,BKN260,0.00,VWS V14.01,2013-05-11 13:55:00,
2013-05-11 08:00:00,41.2,31.5,30.13,West,271,0.0,0.0,68,0.00,,BKN260,0.00,VWS V14.01,2013-05-11 14:00:00,
2013-05-11 08:05:00,41.2,31.5,30.13,West,271,0.0,0.0,68,0.00,,BKN260,0.00,VWS V14.01,2013-05-11 14:05:00,
2013-05-11 08:10:00,41.2,31.5,30.13,West,271,0.0,0.0,68,0.00,,BKN260,0.00,VWS V14.01,2013-05-11 14:10:00,
2013-05-11 08:15:00,41.3,31.5,30.15,West,271,0.0,0.0,68,0.00,,BKN260,0.00,VWS V14.01,2013-05-11 14:15:00,
2013-05-11 08:20:00,41.5,32.1,30.15,West,271,0.0,0.0,69,0.00,,BKN260,0.00,VWS V14.01,2013-05-11 14:20:00,
2013-05-11 08:25:00,41.8,32.0,30.15,West,271,0.0,0.0,68,0.00,,BKN260,0.00,VWS V14.01,2013-05-11 14:25:00,
2013-05-11 08:30:00,42.1,32.0,30.14,West,271,0.0,0.0,67,0.00,,BKN260,0.00,VWS V14.01,2013-05-11 14:30:00,
2013-05-11 08:35:00,42.5,32.0,30.14,West,271,0.0,0.0,66,0.00,,OVC200,0.00,VWS V14.01,2013-05-11 14:35:00,
2013-05-11 08:40:00,42.9,32.0,30.14,West,271,0.0,0.0,65,0.00,,OVC200,0.00,VWS V14.01,2013-05-11 14:40:00,
2013-05-11 08:45:00,43.5,32.2,30.12,West,271,0.0,0.0,64,0.00,,OVC200,0.00,VWS V14.01,2013-05-11 14:45:00,
2013-05-11 08:50:00,43.8,32.4,30.12,West,271,0.0,0.0,64,0.00,,OVC200,0.00,VWS V14.01,2013-05-11 14:50:00,
2013-05-11 08:55:00,44.1,32.3,30.12,West,271,0.0,0.0,63,0.00,,OVC200,0.00,VWS V14.01,2013-05-11 14:55:00,
2013-05-11 09:00:00,44.5,32.3,30.11,West,271,0.0,0.0,62,0.00,,OVC200,0.00,VWS V14.01,2013-05-11 15:00:00,
2013-05-11 09:05:00,44.8,32.6,30.11,West,271,0.0,0.0,62,0.00,,OVC200,0.00,VWS V14.01,2013-05-11 15:05:00,
2013-05-11 09:10:00,44.9,32.3,30.11,West,271,0.0,0.0,61,0.00,,OVC200,0.00,VWS V14.01,2013-05-11 15:10:00,
2013-05-11 09:15:00,45.4,32.3,30.11,West,271,0.0,0.0,60,0.00,,OVC200,0.00,VWS V14.01,2013-05-11 15:15:00,
2013-05-11 09:20:00,46.0,32.5,30.11,West,271,0.0,0.0,59,0.00,,OVC200,0.00,VWS V14.01,2013-05-11 15:20:00,
2013-05-11 09:25:00,46.4,32.4,30.11,West,271,0.0,0.0,58,0.00,,OVC200,0.00,VWS V14.01,2013-05-11 15:25:00,
2013-05-11 09:30:00,46.7,32.7,30.09,West,271,0.0,0.0,58,0.00,,OVC200,0.00,VWS V14.01,2013-05-11 15:30:00,
2013-05-11 09:35:00,47.1,33.1,30.09,West,271,0.0,1.0,58,0.00,,BKN200,0.00,VWS V14.01,2013-05-11 15:35:00,
2013-05-11 09:40:00,47.6,33.1,30.09,West,271,0.0,1.0,57,0.00,,BKN200,0.00,VWS V14.01,2013-05-11 15:40:00,
2013-05-11 09:45:00,47.7,33.2,30.09,West,271,0.0,1.0,57,0.00,,BKN200,0.00,VWS V14.01,2013-05-11 15:45:00,
2013-05-11 09:50:00,47.9,33.4,30.09,West,271,0.0,1.0,57,0.00,,BKN200,0.00,VWS V14.01,2013-05-11 15:50:00,
2013-05-11 09:55:00,48.2,33.7,30.09,West,271,0.0,1.0,57,0.00,,BKN200,0.00,VWS V14.01,2013-05-11 15:55:00,
2013-05-11 10:00:00,48.6,34.5,30.07,West,271,0.0,1.0,58,0.00,,BKN200,0.00,VWS V14.01,2013-05-11 16:00:00,
2013-05-11 10:05:00,49.1,34.1,30.07,West,271,0.0,0.0,56,0.00,,BKN200,0.00,VWS V14.01,2013-05-11 16:05:00,
2013-05-11 10:10:00,49.6,33.2,30.07,West,271,0.0,0.0,53,0.00,,BKN200,0.00,VWS V14.01,2013-05-11 16:10:00,
2013-05-11 10:15:00,49.9,33.9,30.07,West,271,0.0,0.0,54,0.00,,BKN200,0.00,VWS V14.01,2013-05-11 16:15:00,
2013-05-11 10:20:00,50.7,34.2,30.07,West,271,0.0,0.0,53,0.00,,BKN200,0.00,VWS V14.01,2013-05-11 16:20:00,
2013-05-11 10:25:00,52.0,34.0,30.07,West,271,0.0,1.0,50,0.00,,BKN200,0.00,VWS V14.01,2013-05-11 16:25:00,
2013-05-11 10:30:00,52.9,34.8,30.05,West,271,0.0,1.0,50,0.00,,BKN200,0.00,VWS V14.01,2013-05-11 16:30:00,
2013-05-11 10:35:00,53.3,34.7,30.05,West,271,0.0,0.0,49,0.00,,OVC200,0.00,VWS V14.01,2013-05-11 16:35:00,
2013-05-11 10:40:00,54.1,33.8,30.05,West,271,0.0,0.0,46,0.00,,OVC200,0.00,VWS V14.01,2013-05-11 16:40:00,
2013-05-11 10:45:00,55.1,34.2,30.03,West,271,0.0,0.0,45,0.00,,OVC200,0.00,VWS V14.01,2013-05-11 16:45:00,
2013-05-11 10:50:00,55.9,34.3,30.03,West,271,0.0,0.0,44,0.00,,OVC200,0.00,VWS V14.01,2013-05-11 16:50:00,
2013-05-11 10:55:00,56.6,34.4,30.03,West,271,0.0,0.0,43,0.00,,OVC200,0.00,VWS V14.01,2013-05-11 16:55:00,
2013-05-11 11:00:00,57.2,34.3,30.02,West,271,0.0,0.0,42,0.00,,OVC200,0.00,VWS V14.01,2013-05-11 17:00:00,
2013-05-11 11:05:00,57.6,34.7,30.02,West,271,0.0,0.0,42,0.00,,OVC200,0.00,VWS V14.01,2013-05-11 17:05:00,
2013-05-11 11:10:00,58.1,35.2,30.02,West,271,0.0,0.0,42,0.00,,OVC200,0.00,VWS V14.01,2013-05-11 17:10:00,
2013-05-11 11:15:00,58.6,36.2,30.03,West,271,0.0,0.0,43,0.00,,OVC200,0.00,VWS V14.01,2013-05-11 17:15:00,
2013-05-11 11:20:00,59.3,34.4,30.03,West,271,0.0,0.0,39,0.00,,OVC200,0.00,VWS V14.01,2013-05-11 17:20:00,
2013-05-11 11:25:00,59.9,34.2,30.03,West,271,0.0,0.0,38,0.00,,OVC200,0.00,VWS V14.01,2013-05-11 17:25:00,
2013-05-11 11:30:00,60.9,34.5,30.02,West,275,0.0,0.0,37,0.00,,OVC200,0.00,VWS V14.01,2013-05-11 17:30:00,
2013-05-11 11:35:00,61.6,34.4,30.02,West,276,0.0,0.0,36,0.00,,BKN200,0.00,VWS V14.01,2013-05-11 17:35:00,
2013-05-11 11:40:00,62.3,35.0,30.02,West,276,0.0,0.0,36,0.00,,BKN200,0.00,VWS V14.01,2013-05-11 17:40:00,
2013-05-11 11:45:00,63.2,33.6,30.00,West,276,0.0,1.0,33,0.00,,BKN200,0.00,VWS V14.01,2013-05-11 17:45:00,
2013-05-11 11:50:00,64.0,32.0,30.00,West,276,0.0,1.0,30,0.00,,BKN200,0.00,VWS V14.01,2013-05-11 17:50:00,
2013-05-11 11:55:00,65.0,32.0,30.00,West,272,0.0,1.0,29,0.00,,BKN200,0.00,VWS V14.01,2013-05-11 17:55:00,
2013-05-11 12:00:00,65.6,31.6,29.98,West,273,0.0,1.0,28,0.00,,BKN200,0.00,VWS V14.01,2013-05-11 18:00:00,
2013-05-11 12:05:00,66.6,32.5,29.98,West,280,0.0,0.0,28,0.00,,BKN200,0.00,VWS V14.01,2013-05-11 18:05:00,
2013-05-11 12:10:00,67.3,32.2,29.98,West,277,0.0,0.0,27,0.00,,BKN200,0.00,VWS V14.01,2013-05-11 18:10:00,
2013-05-11 12:15:00,67.8,32.6,29.98,West,274,0.0,0.0,27,0.00,,BKN200,0.00,VWS V14.01,2013-05-11 18:15:00,
2013-05-11 12:20:00,68.3,32.1,29.98,West,271,0.0,1.0,26,0.00,,BKN200,0.00,VWS V14.01,2013-05-11 18:20:00,
2013-05-11 12:25:00,68.9,31.7,29.98,West,276,0.0,1.0,25,0.00,,BKN200,0.00,VWS V14.01,2013-05-11 18:25:00,
2013-05-11 12:30:00,69.6,31.2,29.96,West,276,0.0,1.0,24,0.00,,BKN200,0.00,VWS V14.01,2013-05-11 18:30:00,
2013-05-11 12:35:00,70.1,30.6,29.96,West,266,0.0,1.0,23,0.00,,BKN200,0.00,VWS V14.01,2013-05-11 18:35:00,
2013-05-11 12:40:00,70.9,29.0,29.96,West,271,0.0,1.0,21,0.00,,BKN200,0.00,VWS V14.01,2013-05-11 18:40:00,
2013-05-11 12:45:00,71.8,27.4,29.95,West,276,0.0,1.0,19,0.00,,BKN200,0.00,VWS V14.01,2013-05-11 18:45:00,
2013-05-11 12:50:00,72.3,26.5,29.95,WNW,283,0.0,1.0,18,0.00,,BKN200,0.00,VWS V14.01,2013-05-11 18:50:00,
2013-05-11 12:55:00,72.1,24.9,29.95,West,269,0.0,1.0,17,0.00,,BKN200,0.00,VWS V14.01,2013-05-11 18:55:00,
2013-05-11 13:00:00,71.8,24.7,29.95,West,269,0.0,1.0,17,0.00,,BKN200,0.00,VWS V14.01,2013-05-11 19:00:00,
2013-05-11 13:05:00,71.5,23.0,29.95,West,281,0.0,2.0,16,0.00,,BKN200,0.00,VWS V14.01,2013-05-11 19:05:00,
2013-05-11 13:10:00,71.8,26.0,29.95,West,281,0.0,2.0,18,0.00,,BKN200,0.00,VWS V14.01,2013-05-11 19:10:00,
2013-05-11 13:15:00,71.8,23.2,29.96,West,278,0.0,2.0,16,0.00,,BKN200,0.00,VWS V14.01,2013-05-11 19:15:00,
2013-05-11 13:20:00,72.1,23.5,29.96,West,269,0.0,2.0,16,0.00,,BKN200,0.00,VWS V14.01,2013-05-11 19:20:00,
2013-05-11 13:25:00,72.5,23.8,29.96,NW,321,0.0,2.0,16,0.00,,BKN200,0.00,VWS V14.01,2013-05-11 19:25:00,
2013-05-11 13:30:00,72.7,24.0,29.95,West,274,0.0,2.0,16,0.00,,BKN200,0.00,VWS V14.01,2013-05-11 19:30:00,
2013-05-11 13:35:00,72.5,23.8,29.95,West,269,0.0,1.0,16,0.00,,BKN200,0.00,VWS V14.01,2013-05-11 19:35:00,
2013-05-11 13:40:00,72.7,24.0,29.95,West,271,0.0,1.0,16,0.00,,BKN200,0.00,VWS V14.01,2013-05-11 19:40:00,
2013-05-11 13:45:00,72.5,22.3,29.95,West,277,0.0,1.0,15,0.00,,BKN200,0.00,VWS V14.01,2013-05-11 19:45:00,
2013-05-11 13:50:00,72.8,24.0,29.95,West,274,0.0,1.0,16,0.00,,BKN200,0.00,VWS V14.01,2013-05-11 19:50:00,
2013-05-11 13:55:00,72.8,22.5,29.95,West,280,0.0,1.0,15,0.00,,BKN200,0.00,VWS V14.01,2013-05-11 19:55:00,
2013-05-11 14:00:00,73.0,24.2,29.95,West,279,0.0,1.0,16,0.00,,BKN200,0.00,VWS V14.01,2013-05-11 20:00:00,
2013-05-11 14:05:00,72.8,24.0,29.95,West,273,1.0,1.0,16,0.00,,BKN200,0.00,VWS V14.01,2013-05-11 20:05:00,
2013-05-11 14:10:00,73.2,24.4,29.95,West,269,0.0,1.0,16,0.00,,BKN200,0.00,VWS V14.01,2013-05-11 20:10:00,
2013-05-11 14:15:00,73.5,23.1,29.95,West,270,0.0,1.0,15,0.00,,BKN200,0.00,VWS V14.01,2013-05-11 20:15:00,
2013-05-11 14:20:00,73.7,23.2,29.94,West,279,0.0,1.0,15,0.00,,BKN200,0.00,VWS V14.01,2013-05-11 20:20:00,
2013-05-11 14:25:00,73.9,23.4,29.94,WNW,294,0.0,2.0,15,0.00,,BKN200,0.00,VWS V14.01,2013-05-11 20:25:00,
2013-05-11 14:30:00,74.2,25.2,29.94,WNW,286,0.0,2.0,16,0.00,,BKN200,0.00,VWS V14.01,2013-05-11 20:30:00,
2013-05-11 14:35:00,74.4,22.1,29.93,West,274,0.0,1.0,14,0.00,,BKN200,0.00,VWS V14.01,2013-05-11 20:35:00,
2013-05-11 14:40:00,74.9,25.7,29.93,WNW,296,0.0,1.0,16,0.00,,BKN200,0.00,VWS V14.01,2013-05-11 20:40:00,
2013-05-11 14:45:00,74.4,25.3,29.93,West,276,0.0,1.0,16,0.00,,BKN200,0.00,VWS V14.01,2013-05-11 20:45:00,
2013-05-11 14:50:00,74.2,23.6,29.93,West,274,0.0,1.0,15,0.00,,BKN200,0.00,VWS V14.01,2013-05-11 20:50:00,
2013-05-11 14:55:00,74.0,23.5,29.93,West,273,0.0,1.0,15,0.00,,BKN200,0.00,VWS V14.01,2013-05-11 20:55:00,
2013-05-11 15:00:00,74.0,23.5,29.93,West,278,0.0,1.0,15,0.00,,BKN200,0.00,VWS V14.01,2013-05-11 21:00:00,
2013-05-11 15:05:00,74.4,23.8,29.93,WNW,288,0.0,0.0,15,0.00,,BKN200,0.00,VWS V14.01,2013-05-11 21:05:00,
2013-05-11 15:10:00,74.7,24.0,29.93,West,276,0.0,0.0,15,0.00,,BKN200,0.00,VWS V14.01,2013-05-11 21:10:00,
2013-05-11 15:15:00,74.7,24.0,29.93,West,277,0.0,0.0,15,0.00,,BKN200,0.00,VWS V14.01,2013-05-11 21:15:00,
2013-05-11 15:20:00,74.7,24.0,29.94,WNW,283,0.0,1.0,15,0.00,,BKN200,0.00,VWS V14.01,2013-05-11 21:20:00,
2013-05-11 15:25:00,74.7,25.6,29.94,WNW,288,0.0,1.0,16,0.00,,BKN200,0.00,VWS V14.01,2013-05-11 21:25:00,
2013-05-11 15:30:00,74.7,24.0,29.94,WNW,290,0.0,2.0,15,0.00,,BKN200,0.00,VWS V14.01,2013-05-11 21:30:00,
2013-05-11 15:35:00,75.1,25.9,29.95,WNW,288,0.0,1.0,16,0.00,,SCT200,0.00,VWS V14.01,2013-05-11 21:35:00,
2013-05-11 15:40:00,75.4,26.1,29.95,WNW,300,0.0,3.0,16,0.00,,SCT200,0.00,VWS V14.01,2013-05-11 21:40:00,
2013-05-11 15:45:00,75.4,26.1,29.95,ENE,75,0.0,3.0,16,0.00,,SCT200,0.00,VWS V14.01,2013-05-11 21:45:00,
2013-05-11 15:50:00,75.3,26.0,29.94,West,264,0.0,3.0,16,0.00,,SCT200,0.00,VWS V14.01,2013-05-11 21:50:00,
2013-05-11 15:55:00,75.1,27.4,29.94,East,87,0.0,3.0,17,0.00,,SCT200,0.00,VWS V14.01,2013-05-11 21:55:00,
2013-05-11 16:00:00,75.8,26.5,29.94,West,275,0.0,3.0,16,0.00,,SCT200,0.00,VWS V14.01,2013-05-11 22:00:00,
2013-05-11 16:05:00,76.5,27.0,29.93,East,82,0.0,6.0,16,0.00,,SCT200,0.00,VWS V14.01,2013-05-11 22:05:00,
2013-05-11 16:10:00,76.8,27.2,29.93,West,265,0.0,6.0,16,0.00,,SCT200,0.00,VWS V14.01,2013-05-11 22:10:00,
2013-05-11 16:15:00,77.4,27.7,29.93,West,265,0.0,6.0,16,0.00,,SCT200,0.00,VWS V14.01,2013-05-11 22:15:00,
2013-05-11 16:20:00,77.7,26.4,29.93,WNW,292,0.0,6.0,15,0.00,,SCT200,0.00,VWS V14.01,2013-05-11 22:20:00,
2013-05-11 16:25:00,77.2,27.6,29.93,ESE,120,0.0,6.0,16,0.00,,SCT200,0.00,VWS V14.01,2013-05-11 22:25:00,
2013-05-11 16:30:00,76.3,25.3,29.93,West,271,0.0,6.0,15,0.00,,SCT200,0.00,VWS V14.01,2013-05-11 22:30:00,
2013-05-11 16:35:00,75.8,24.9,29.93,West,271,0.0,0.0,15,0.00,,BKN200,0.00,VWS V14.01,2013-05-11 22:35:00,
2013-05-11 16:40:00,75.6,24.7,29.93,West,278,0.0,0.0,15,0.00,,BKN200,0.00,VWS V14.01,2013-05-11 22:40:00,
2013-05-11 16:45:00,75.6,24.7,29.93,WNW,287,0.0,1.0,15,0.00,,BKN200,0.00,VWS V14.01,2013-05-11 22:45:00,
2013-05-11 16:50:00,75.6,21.3,29.93,West,275,0.0,1.0,13,0.00,,BKN200,0.00,VWS V14.01,2013-05-11 22:50:00,
2013-05-11 16:55:00,75.4,22.9,29.93,West,274,0.0,1.0,14,0.00,,BKN200,0.00,VWS V14.01,2013-05-11 22:55:00,
2013-05-11 17:00:00,75.6,23.1,29.93,West,267,0.0,1.0,14,0.00,,BKN200,0.00,VWS V14.01,2013-05-11 23:00:00,
2013-05-11 17:05:00,75.8,23.2,29.93,West,280,1.0,1.0,14,0.00,,BKN200,0.00,VWS V14.01,2013-05-11 23:05:00,
2013-05-11 17:10:00,75.8,21.5,29.93,NW,311,0.0,1.0,13,0.00,,BKN200,0.00,VWS V14.01,2013-05-11 23:10:00,
2013-05-11 17:15:00,75.6,21.3,29.93,West,281,0.0,1.0,13,0.00,,BKN200,0.00,VWS V14.01,2013-05-11 23:15:00,
2013-05-11 17:20:00,75.1,20.9,29.92,NW,316,0.0,1.0,13,0.00,,BKN200,0.00,VWS V14.01,2013-05-11 23:20:00,
2013-05-11 17:25:00,74.7,22.4,29.92,WNW,288,0.0,1.0,14,0.00,,BKN200,0.00,VWS V14.01,2013-05-11 23:25:00,
2013-05-11 17:30:00,74.9,20.8,29.92,West,276,0.0,1.0,13,0.00,,BKN200,0.00,VWS V14.01,2013-05-11 23:30:00,
2013-05-11 17:35:00,75.3,22.9,29.93,WNW,284,0.0,1.0,14,0.00,,BKN200,0.00,VWS V14.01,2013-05-11 23:35:00,
2013-05-11 17:40:00,75.4,22.9,29.93,West,274,0.0,1.0,14,0.00,,BKN200,0.00,VWS V14.01,2013-05-11 23:40:00,
2013-05-11 17:45:00,75.3,22.9,29.93,West,274,0.0,1.0,14,0.00,,BKN200,0.00,VWS V14.01,2013-05-11 23:45:00,
2013-05-11 17:50:00,74.6,22.3,29.93,NW,307,0.0,1.0,14,0.00,,BKN200,0.00,VWS V14.01,2013-05-11 23:50:00,
2013-05-11 17:55:00,74.7,22.4,29.93,WNW,283,0.0,1.0,14,0.00,,BKN200,0.00,VWS V14.01,2013-05-11 23:55:00,
2013-05-11 18:00:00,75.3,22.9,29.93,West,276,0.0,1.0,14,0.00,,BKN200,0.00,VWS V14.01,2013-05-12 00:00:00,
2013-05-11 18:05:00,75.3,22.9,29.93,West,277,0.0,0.0,14,0.00,,BKN200,0.00,VWS V14.01,2013-05-12 00:05:00,
2013-05-11 18:10:00,75.3,22.9,29.93,WNW,297,0.0,1.0,14,0.00,,BKN200,0.00,VWS V14.01,2013-05-12 00:10:00,
2013-05-11 18:15:00,75.1,24.3,29.93,West,276,0.0,1.0,15,0.00,,BKN200,0.00,VWS V14.01,2013-05-12 00:15:00,
2013-05-11 18:20:00,74.9,22.5,29.92,West,281,0.0,1.0,14,0.00,,BKN200,0.00,VWS V14.01,2013-05-12 00:20:00,
2013-05-11 18:25:00,74.9,22.5,29.92,WNW,290,0.0,1.0,14,0.00,,BKN200,0.00,VWS V14.01,2013-05-12 00:25:00,
2013-05-11 18:30:00,74.6,23.9,29.92,West,273,0.0,1.0,15,0.00,,BKN200,0.00,VWS V14.01,2013-05-12 00:30:00,
2013-05-11 18:35:00,73.5,23.1,29.92,West,277,0.0,0.0,15,0.00,,OVC200,0.00,VWS V14.01,2013-05-12 00:35:00,
2013-05-11 18:40:00,72.7,24.0,29.92,West,278,0.0,0.0,16,0.00,,OVC200,0.00,VWS V14.01,2013-05-12 00:40:00,
2013-05-11 18:45:00,72.3,22.1,29.92,West,261,0.0,1.0,15,0.00,,OVC200,0.00,VWS V14.01,2013-05-12 00:45:00,
2013-05-11 18:50:00,72.1,23.5,29.93,West,276,0.0,1.0,16,0.00,,OVC200,0.00,VWS V14.01,2013-05-12 00:50:00,
2013-05-11 18:55:00,72.0,23.4,29.93,West,276,0.0,1.0,16,0.00,,OVC200,0.00,VWS V14.01,2013-05-12 00:55:00,
2013-05-11 19:00:00,72.0,23.4,29.93,WNW,286,0.0,1.0,16,0.00,,OVC200,0.00,VWS V14.01,2013-05-12 01:00:00,
2013-05-11 19:05:00,72.5,22.3,29.93,ENE,73,0.0,2.0,15,0.00,,OVC200,0.00,VWS V14.01,2013-05-12 01:05:00,
2013-05-11 19:10:00,73.2,22.8,29.93,ENE,73,0.0,2.0,15,0.00,,OVC200,0.00,VWS V14.01,2013-05-12 01:10:00,
2013-05-11 19:15:00,73.7,23.2,29.93,West,280,0.0,2.0,15,0.00,,OVC200,0.00,VWS V14.01,2013-05-12 01:15:00,
2013-05-11 19:20:00,73.5,23.1,29.93,East,83,0.0,2.0,15,0.00,,OVC200,0.00,VWS V14.01,2013-05-12 01:20:00,
2013-05-11 19:25:00,73.0,22.7,29.93,NNW,348,0.0,2.0,15,0.00,,OVC200,0.00,VWS V14.01,2013-05-12 01:25:00,
2013-05-11 19:30:00,73.0,22.7,29.93,NW,321,0.0,2.0,15,0.00,,OVC200,0.00,VWS V14.01,2013-05-12 01:30:00,
2013-05-11 19:35:00,72.7,22.4,29.92,WNW,297,0.0,1.0,15,0.00,,OVC200,0.00,VWS V14.01,2013-05-12 01:35:00,
2013-05-11 19:40:00,72.3,22.1,29.92,West,276,0.0,1.0,15,0.00,,OVC200,0.00,VWS V14.01,2013-05-12 01:40:00,
2013-05-11 19:45:00,72.0,21.9,29.92,West,276,0.0,1.0,15,0.00,,OVC200,0.00,VWS V14.01,2013-05-12 01:45:00,
2013-05-11 19:50:00,72.0,23.4,29.93,West,276,0.0,1.0,16,0.00,,OVC200,0.00,VWS V14.01,2013-05-12 01:50:00,
2013-05-11 19:55:00,71.8,23.2,29.93,West,277,0.0,1.0,16,0.00,,OVC200,0.00,VWS V14.01,2013-05-12 01:55:00,
2013-05-11 20:00:00,71.3,22.8,29.93,East,83,0.0,1.0,16,0.00,,OVC200,0.00,VWS V14.01,2013-05-12 02:00:00,
2013-05-11 20:05:00,70.9,22.5,29.93,WNW,287,0.0,0.0,16,0.00,,OVC200,0.00,VWS V14.01,2013-05-12 02:05:00,
2013-05-11 20:10:00,70.6,22.3,29.93,WNW,292,0.0,0.0,16,0.00,,OVC200,0.00,VWS V14.01,2013-05-12 02:10:00,
2013-05-11 20:15:00,70.1,23.3,29.93,WNW,292,0.0,0.0,17,0.00,,OVC200,0.00,VWS V14.01,2013-05-12 02:15:00,
2013-05-11 20:20:00,69.6,24.2,29.92,NNW,329,0.0,1.0,18,0.00,,OVC200,0.00,VWS V14.01,2013-05-12 02:20:00,
2013-05-11 20:25:00,68.9,25.0,29.92,East,82,0.0,1.0,19,0.00,,OVC200,0.00,VWS V14.01,2013-05-12 02:25:00,
2013-05-11 20:30:00,68.6,22.1,29.92,NW,304,0.0,1.0,17,0.00,,OVC200,0.00,VWS V14.01,2013-05-12 02:30:00,
2013-05-11 20:35:00,68.4,23.3,29.92,NW,304,0.0,0.0,18,0.00,,BKN260,0.00,VWS V14.01,2013-05-12 02:35:00,
2013-05-11 20:40:00,67.9,24.1,29.92,North,0,0.0,1.0,19,0.00,,BKN260,0.00,VWS V14.01,2013-05-12 02:40:00,
2013-05-11 20:45:00,67.4,23.7,29.92,NW,307,0.0,1.0,19,0.00,,BKN260,0.00,VWS V14.01,2013-05-12 02:45:00,
2013-05-11 20:50:00,67.1,23.5,29.93,NE,54,0.0,1.0,19,0.00,,BKN260,0.00,VWS V14.01,2013-05-12 02:50:00,
2013-05-11 20:55:00,66.9,23.3,29.93,NE,54,0.0,1.0,19,0.00,,BKN260,0.00,VWS V14.01,2013-05-12 02:55:00,
2013-05-11 21:00:00,66.9,24.5,29.93,WNW,296,0.0,1.0,20,0.00,,BKN260,0.00,VWS V14.01,2013-05-12 03:00:00,
2013-05-11 21:05:00,66.9,25.7,29.93,NW,311,0.0,0.0,21,0.00,,BKN260,0.00,VWS V14.01,2013-05-12 03:05:00,
2013-05-11 21:10:00,66.4,25.3,29.93,NW,311,0.0,0.0,21,0.00,,BKN260,0.00,VWS V14.01,2013-05-12 03:10:00,
2013-05-11 21:15:00,65.8,28.0,29.93,NW,311,0.0,0.0,24,0.00,,BKN260,0.00,VWS V14.01,2013-05-12 03:15:00,
2013-05-11 21:20:00,65.0,24.1,29.92,NW,312,0.0,1.0,21,0.00,,BKN260,0.00,VWS V14.01,2013-05-12 03:20:00,
2013-05-11 21:25:00,64.8,24.0,29.92,NNW,330,0.0,1.0,21,0.00,,BKN260,0.00,VWS V14.01,2013-05-12 03:25:00,
2013-05-11 21:30:00,64.7,25.0,29.92,WNW,294,0.0,1.0,22,0.00,,BKN260,0.00,VWS V14.01,2013-05-12 03:30:00,
2013-05-11 21:35:00,64.3,25.7,29.93,NE,39,0.0,1.0,23,0.00,,BKN260,0.00,VWS V14.01,2013-05-12 03:35:00,
2013-05-11 21:40:00,63.7,29.1,29.93,NE,39,0.0,1.0,27,0.00,,BKN260,0.00,VWS V14.01,2013-05-12 03:40:00,
2013-05-11 21:45:00,62.9,27.5,29.93,NE,39,0.0,1.0,26,0.00,,BKN260,0.00,VWS V14.01,2013-05-12 03:45:00,
2013-05-11 21:50:00,62.4,27.1,29.94,NE,39,0.0,1.0,26,0.00,,BKN260,0.00,VWS V14.01,2013-05-12 03:50:00,
2013-05-11 21:55:00,62.7,23.3,29.94,WNW,294,0.0,1.0,22,0.00,,BKN260,0.00,VWS V14.01,2013-05-12 03:55:00,
2013-05-11 22:00:00,63.5,26.1,29.94,WNW,294,0.0,1.0,24,0.00,,BKN260,0.00,VWS V14.01,2013-05-12 04:00:00,
2013-05-11 22:01:00,63.7,24.2,29.93,WNW,294,0.0,1.0,22,0.00,,BKN260,0.00,VWS V14.01,2013-05-12 04:01:00,
2013-05-11 22:06:00,64.0,24.4,29.93,WNW,294,0.0,0.0,22,0.00,,BKN260,0.00,VWS V14.01,2013-05-12 04:06:00,
2013-05-11 22:11:00,64.0,27.5,29.93,WNW,294,0.0,0.0,25,0.00,,BKN260,0.00,VWS V14.01,2013-05-12 04:11:00,
2013-05-11 22:16:00,63.4,27.9,29.89,WNW,294,0.0,0.0,26,0.00,,BKN260,0.00,VWS V14.01,2013-05-12 04:16:00,
2013-05-11 22:21:00,62.7,29.1,29.89,WNW,294,0.0,1.0,28,0.00,,BKN260,0.00,VWS V14.01,2013-05-12 04:21:00,
2013-05-11 22:26:00,62.4,27.1,29.89,WNW,294,0.0,1.0,26,0.00,,BKN260,0.00,VWS V14.01,2013-05-12 04:26:00,
2013-05-11 22:31:00,62.6,25.3,29.89,WNW,294,0.0,1.0,24,0.00,,BKN260,0.00,VWS V14.01,2013-05-12 04:31:00,
2013-05-11 22:36:00,63.1,26.7,29.89,WNW,294,0.0,0.0,25,0.00,,BKN260,0.00,VWS V14.01,2013-05-12 04:36:00,
2013-05-11 22:41:00,62.9,29.3,29.89,WNW,294,0.0,0.0,28,0.00,,BKN260,0.00,VWS V14.01,2013-05-12 04:41:00,
2013-05-11 22:46:00,62.3,30.5,29.89,WNW,294,0.0,1.0,30,0.00,,BKN260,0.00,VWS V14.01,2013-05-12 04:46:00,
2013-05-11 22:51:00,61.8,27.5,29.89,WNW,294,0.0,1.0,27,0.00,,BKN260,0.00,VWS V14.01,2013-05-12 04:51:00,
2013-05-11 22:56:00,62.0,27.7,29.89,NW,313,0.0,1.0,27,0.00,,BKN260,0.00,VWS V14.01,2013-05-12 04:56:00,
2013-05-11 23:01:00,62.4,27.1,29.89,WNW,299,0.0,1.0,26,0.00,,BKN260,0.00,VWS V14.01,2013-05-12 05:01:00,
2013-05-11 23:06:00,62.9,27.5,29.89,WNW,299,0.0,0.0,26,0.00,,BKN260,0.00,VWS V14.01,2013-05-12 05:06:00,
2013-05-11 23:11:00,63.4,27.9,29.89,NNW,340,0.0,1.0,26,0.00,,BKN260,0.00,VWS V14.01,2013-05-12 05:11:00,
2013-05-11 23:16:00,63.5,28.0,29.83,WNW,297,0.0,1.0,26,0.00,,BKN260,0.00,VWS V14.01,2013-05-12 05:16:00,
2013-05-11 23:21:00,63.7,28.2,29.83,WNW,289,0.0,1.0,26,0.00,,BKN260,0.00,VWS V14.01,2013-05-12 05:21:00,
2013-05-11 23:26:00,63.9,28.4,29.83,WNW,284,0.0,1.0,26,0.00,,BKN260,0.00,VWS V14.01,2013-05-12 05:26:00,
2013-05-11 23:31:00,64.2,27.7,29.83,WNW,289,0.0,1.0,25,0.00,,BKN260,0.00,VWS V14.01,2013-05-12 05:31:00,
2013-05-11 23:36:00,64.0,28.5,29.83,WNW,289,0.0,0.0,26,0.00,,SCT240,0.00,VWS V14.01,2013-05-12 05:36:00,
2013-05-11 23:41:00,63.9,28.4,29.83,NW,321,0.0,1.0,26,0.00,,SCT240,0.00,VWS V14.01,2013-05-12 05:41:00,
2013-05-11 23:46:00,63.7,29.1,29.83,NW,311,0.0,1.0,27,0.00,,SCT240,0.00,VWS V14.01,2013-05-12 05:46:00,
2013-05-11 23:51:00,63.2,28.7,29.83,NW,313,0.0,1.0,27,0.00,,SCT240,0.00,VWS V14.01,2013-05-12 05:51:00,
2013-05-11 23:56:00,63.1,28.6,29.83,NW,313,0.0,1.0,27,0.00,,SCT240,0.00,VWS V14.01,2013-05-12 05:56:00,